Location: ??????
(36.0418°N, 43.6351°E)
Time: 03:36:22
(UTC+00:00)

Cosmos 883 Rocket - Pass Details

Date: 23 June 2021
Orbit: 950 x 996 km, 83.0° (Epoch: 27 July)

Event Time Altitude Azimuth Distance (km) Brightness Sun altitude
Rises 00:33:43 0° 346° (NNW) 3,632 7.9 -13.2°
Reaches altitude 10° 00:36:18 10° 341° (NNW) 2,681 7.1 -12.8°
Maximum altitude 00:42:07 48° 270° (W) 1,223 4.7 -11.9°
Drops below altitude 10° 00:47:56 10° 197° (SSW) 2,668 6.3 -11.0°
Enters shadow 00:48:37 - 195° (SSW) 2,916 6.5 -10.9°
